owner,sensor,date,latitude,longitude,vertical_datum,sea_water_practical_salinity,qcFlag 
NERRS,ioos:station:NOAA.NERRS:gndpcwq:1,2014-10-01T00:00:00Z,30.3486,-88.4185,1.46,25.2,1111122 
NERRS,ioos:station:NOAA.NERRS:gndpcwq:1,2014-10-01T01:00:00Z,30.3486,-88.4185,1.48,43.0,1111122 
NERRS,ioos:station:NOAA.NERRS:gndpcwq:1,2014-10-01T02:00:00Z,30.3486,-88.4185,1.56,18.2,1111122 
NERRS,ioos:station:NOAA.NERRS:gndpcwq:1,2014-10-01T03:00:00Z,30.3486,-88.4185,1.59,24.7,1111122 
NERRS,ioos:station:NOAA.NERRS:gndpcwq:1,2014-10-01T04:00:00Z,30.3486,-88.4185,1.65,14.8,1111122 
NERRS,ioos:station:NOAA.NERRS:gndpcwq:1,2014-10-01T05:00:00Z,30.3486,-88.4185,1.69,21.9,1111122 
NERRS,ioos:station:NOAA.NERRS:gndpcwq:1,2014-10-01T07:00:00Z,30.3486,-88.4185,1.7,40.9,1111122 
NERRS,ioos:station:NOAA.NERRS:gndpcwq:1,2014-10-01T08:00:00Z,30.3486,-88.4185,1.71,31.5,1111122 
NERRS,ioos:station:NOAA.NERRS:gndpcwq:1,2014-10-01T09:00:00Z,30.3486,-88.4185,1.7,23.7,1111122 
NERRS,ioos:station:NOAA.NERRS:gndpcwq:1,2014-10-01T10:00:00Z,30.3486,-88.4185,1.66,19.2,1111122 
NERRS,ioos:station:NOAA.NERRS:gndpcwq:1,2014-10-01T11:00:00Z,30.3486,-88.4185,1.62,28.6,1111122 
NERRS,ioos:station:NOAA.NERRS:gndpcwq:1,2014-10-01T12:00:00Z,30.3486,-88.4185,1.57,26.0,1111122 
NERRS,ioos:station:NOAA.NERRS:gndpcwq:1,2014-10-01T13:00:00Z,30.3486,-88.4185,1.52,28.2,1111122 
NERRS,ioos:station:NOAA.NERRS:gndpcwq:1,2014-10-01T14:00:00Z,30.3486,-88.4185,1.46,16.8,1111122 
NERRS,ioos:station:NOAA.NERRS:gndpcwq:1,2014-10-01T15:00:00Z,30.3486,-88.4185,1.37,52.1,1111122 
NERRS,ioos:station:NOAA.NERRS:gndpcwq:1,2014-10-01T16:00:00Z,30.3486,-88.4185,1.37,18.3,1111122 
NERRS,ioos:station:NOAA.NERRS:gndpcwq:1,2014-10-01T17:00:00Z,30.3486,-88.4185,1.33,16.0,1111122 
NERRS,ioos:station:NOAA.NERRS:gndpcwq:1,2014-10-01T18:00:00Z,30.3486,-88.4185,1.31,14.7,1111122 
NERRS,ioos:station:NOAA.NERRS:gndpcwq:1,2014-10-01T19:00:00Z,30.3486,-88.4185,1.29,24.5,1111122 
NERRS,ioos:station:NOAA.NERRS:gndpcwq:1,2014-10-01T20:00:00Z,30.3486,-88.4185,1.28,49.7,1111122 
NERRS,ioos:station:NOAA.NERRS:gndpcwq:1,2014-10-01T21:00:00Z,30.3486,-88.4185,1.3,39.8,1111122 
NERRS,ioos:station:NOAA.NERRS:gndpcwq:1,2014-10-01T22:00:00Z,30.3486,-88.4185,1.34,30.6,1111122 
NERRS,ioos:station:NOAA.NERRS:gndpcwq:1,2014-10-01T23:00:00Z,30.3486,-88.4185,1.37,39.3,1111122 
NERRS,ioos:station:NOAA.NERRS:gndpcwq:1,2014-10-02T00:00:00Z,30.3486,-88.4185,1.42,45.8,1111122 
NERRS,ioos:station:NOAA.NERRS:gndpcwq:1,2014-10-02T02:00:00Z,30.3486,-88.4185,1.52,38.3,1111122 
NERRS,ioos:station:NOAA.NERRS:gndpcwq:1,2014-10-02T03:00:00Z,30.3486,-88.4185,1.59,23.2,1111122 
NERRS,ioos:station:NOAA.NERRS:gndpcwq:1,2014-10-02T04:00:00Z,30.3486,-88.4185,1.63,31.8,1111122 
NERRS,ioos:station:NOAA.NERRS:gndpcwq:1,2014-10-02T05:00:00Z,30.3486,-88.4185,1.64,44.4,1111122 
NERRS,ioos:station:NOAA.NERRS:gndpcwq:1,2014-10-02T06:00:00Z,30.3486,-88.4185,1.68,35.2,1111122 
NERRS,ioos:station:NOAA.NERRS:gndpcwq:1,2014-10-02T07:00:00Z,30.3486,-88.4185,1.69,55.2,1111122 
NERRS,ioos:station:NOAA.NERRS:gndpcwq:1,2014-10-02T08:00:00Z,30.3486,-88.4185,1.73,47.5,1111122 
NERRS,ioos:station:NOAA.NERRS:gndpcwq:1,2014-10-02T09:00:00Z,30.3486,-88.4185,1.73,39.1,1111122 
NERRS,ioos:station:NOAA.NERRS:gndpcwq:1,2014-10-02T10:00:00Z,30.3486,-88.4185,1.7,44.5,1111122 
NERRS,ioos:station:NOAA.NERRS:gndpcwq:1,2014-10-02T11:00:00Z,30.3486,-88.4185,1.67,22.5,1111122 
NERRS,ioos:station:NOAA.NERRS:gndpcwq:1,2014-10-02T12:00:00Z,30.3486,-88.4185,1.64,39.8,1111122 
NERRS,ioos:station:NOAA.NERRS:gndpcwq:1,2014-10-02T13:00:00Z,30.3486,-88.4185,1.63,28.1,1111122 
NERRS,ioos:station:NOAA.NERRS:gndpcwq:1,2014-10-02T14:00:00Z,30.3486,-88.4185,1.57,26.6,1111122 
NERRS,ioos:station:NOAA.NERRS:gndpcwq:1,2014-10-02T15:00:00Z,30.3486,-88.4185,1.49,33.4,1111122 
NERRS,ioos:station:NOAA.NERRS:gndpcwq:1,2014-10-02T16:00:00Z,30.3486,-88.4185,1.43,29.2,1111122 
NERRS,ioos:station:NOAA.NERRS:gndpcwq:1,2014-10-02T17:00:00Z,30.3486,-88.4185,1.37,35.0,1111122 
NERRS,ioos:station:NOAA.NERRS:gndpcwq:1,2014-10-02T18:00:00Z,30.3486,-88.4185,1.33,30.4,1111122 
NERRS,ioos:station:NOAA.NERRS:gndpcwq:1,2014-10-02T19:00:00Z,30.3486,-88.4185,1.28,32.9,1111122 
NERRS,ioos:station:NOAA.NERRS:gndpcwq:1,2014-10-02T20:00:00Z,30.3486,-88.4185,1.22,59.3,1111122 
NERRS,ioos:station:NOAA.NERRS:gndpcwq:1,2014-10-02T21:00:00Z,30.3486,-88.4185,1.24,44.6,1111122 
NERRS,ioos:station:NOAA.NERRS:gndpcwq:1,2014-10-02T22:00:00Z,30.3486,-88.4185,1.26,46.9,1111122 
NERRS,ioos:station:NOAA.NERRS:gndpcwq:1,2014-10-02T23:00:00Z,30.3486,-88.4185,1.31,41.9,1111122 
NERRS,ioos:station:NOAA.NERRS:gndpcwq:1,2014-10-03T00:00:00Z,30.3486,-88.4185,1.37,27.0,1111122 
NERRS,ioos:station:NOAA.NERRS:gndpcwq:1,2014-10-03T01:00:00Z,30.3486,-88.4185,1.42,42.5,1111122 
NERRS,ioos:station:NOAA.NERRS:gndpcwq:1,2014-10-03T02:00:00Z,30.3486,-88.4185,1.48,27.9,1111122 
NERRS,ioos:station:NOAA.NERRS:gndpcwq:1,2014-10-03T03:00:00Z,30.3486,-88.4185,1.52,40.6,1111122 
NERRS,ioos:station:NOAA.NERRS:gndpcwq:1,2014-10-03T04:00:00Z,30.3486,-88.4185,1.54,48.2,1111122 
NERRS,ioos:station:NOAA.NERRS:gndpcwq:1,2014-10-03T05:00:00Z,30.3486,-88.4185,1.57,45.3,1111122 
NERRS,ioos:station:NOAA.NERRS:gndpcwq:1,2014-10-03T06:00:00Z,30.3486,-88.4185,1.62,42.8,1111122 
NERRS,ioos:station:NOAA.NERRS:gndpcwq:1,2014-10-03T07:00:00Z,30.3486,-88.4185,1.63,47.6,1111122 
NERRS,ioos:station:NOAA.NERRS:gndpcwq:1,2014-10-03T08:00:00Z,30.3486,-88.4185,1.67,34.6,1111122 
NERRS,ioos:station:NOAA.NERRS:gndpcwq:1,2014-10-03T09:00:00Z,30.3486,-88.4185,1.68,41.9,1111122 
NERRS,ioos:station:NOAA.NERRS:gndpcwq:1,2014-10-03T10:00:00Z,30.3486,-88.4185,1.67,40.6,1111122 
NERRS,ioos:station:NOAA.NERRS:gndpcwq:1,2014-10-03T11:00:00Z,30.3486,-88.4185,1.69,26.3,1111122 
NERRS,ioos:station:NOAA.NERRS:gndpcwq:1,2014-10-03T12:00:00Z,30.3486,-88.4185,1.69,27.1,1111122 
NERRS,ioos:station:NOAA.NERRS:gndpcwq:1,2014-10-03T13:00:00Z,30.3486,-88.4185,1.64,28.7,1111122 
NERRS,ioos:station:NOAA.NERRS:gndpcwq:1,2014-10-03T14:00:00Z,30.3486,-88.4185,1.57,30.5,1111122 
NERRS,ioos:station:NOAA.NERRS:gndpcwq:1,2014-10-03T15:00:00Z,30.3486,-88.4185,1.51,27.0,1111122 
NERRS,ioos:station:NOAA.NERRS:gndpcwq:1,2014-10-03T16:00:00Z,30.3486,-88.4185,1.41,23.8,1111122 
NERRS,ioos:station:NOAA.NERRS:gndpcwq:1,2014-10-03T17:00:00Z,30.3486,-88.4185,1.37,32.4,1111122 
NERRS,ioos:station:NOAA.NERRS:gndpcwq:1,2014-10-03T18:00:00Z,30.3486,-88.4185,1.29,27.5,1111122 
NERRS,ioos:station:NOAA.NERRS:gndpcwq:1,2014-10-03T19:00:00Z,30.3486,-88.4185,1.25,48.4,1111122 
NERRS,ioos:station:NOAA.NERRS:gndpcwq:1,2014-10-03T20:00:00Z,30.3486,-88.4185,1.27,26.7,1111122 
NERRS,ioos:station:NOAA.NERRS:gndpcwq:1,2014-10-03T21:00:00Z,30.3486,-88.4185,1.17,67.1,1111122 
NERRS,ioos:station:NOAA.NERRS:gndpcwq:1,2014-10-03T22:00:00Z,30.3486,-88.4185,1.15,44.8,1111122 
NERRS,ioos:station:NOAA.NERRS:gndpcwq:1,2014-10-03T23:00:00Z,30.3486,-88.4185,1.1,41.3,1111122 
NERRS,ioos:station:NOAA.NERRS:gndpcwq:1,2014-10-04T00:00:00Z,30.3486,-88.4185,1.17,60.6,1111122 
NERRS,ioos:station:NOAA.NERRS:gndpcwq:1,2014-10-04T01:00:00Z,30.3486,-88.4185,1.23,63.5,1111122 
NERRS,ioos:station:NOAA.NERRS:gndpcwq:1,2014-10-04T02:00:00Z,30.3486,-88.4185,1.33,60.1,1111122 
NERRS,ioos:station:NOAA.NERRS:gndpcwq:1,2014-10-04T03:00:00Z,30.3486,-88.4185,1.39,59.9,1111122 
NERRS,ioos:station:NOAA.NERRS:gndpcwq:1,2014-10-04T04:00:00Z,30.3486,-88.4185,1.39,69.6,1111122 
NERRS,ioos:station:NOAA.NERRS:gndpcwq:1,2014-10-04T05:00:00Z,30.3486,-88.4185,1.38,54.3,1111122 
NERRS,ioos:station:NOAA.NERRS:gndpcwq:1,2014-10-04T06:00:00Z,30.3486,-88.4185,1.33,44.9,1111122 
NERRS,ioos:station:NOAA.NERRS:gndpcwq:1,2014-10-04T07:00:00Z,30.3486,-88.4185,1.37,23.5,1111122 
NERRS,ioos:station:NOAA.NERRS:gndpcwq:1,2014-10-04T08:00:00Z,30.3486,-88.4185,1.4,46.6,1111122 
NERRS,ioos:station:NOAA.NERRS:gndpcwq:1,2014-10-04T09:00:00Z,30.3486,-88.4185,1.48,26.7,1111122 
NERRS,ioos:station:NOAA.NERRS:gndpcwq:1,2014-10-04T10:00:00Z,30.3486,-88.4185,1.48,65.2,1111122 
NERRS,ioos:station:NOAA.NERRS:gndpcwq:1,2014-10-04T11:00:00Z,30.3486,-88.4185,1.51,27.9,1111122 
NERRS,ioos:station:NOAA.NERRS:gndpcwq:1,2014-10-04T12:00:00Z,30.3486,-88.4185,1.46,24.9,1111122 
NERRS,ioos:station:NOAA.NERRS:gndpcwq:1,2014-10-04T13:00:00Z,30.3486,-88.4185,1.39,62.2,1111122 
NERRS,ioos:station:NOAA.NERRS:gndpcwq:1,2014-10-04T14:00:00Z,30.3486,-88.4185,1.36,62.2,1111122 
NERRS,ioos:station:NOAA.NERRS:gndpcwq:1,2014-10-04T15:00:00Z,30.3486,-88.4185,1.37,56.3,1111122 
NERRS,ioos:station:NOAA.NERRS:gndpcwq:1,2014-10-04T16:00:00Z,30.3486,-88.4185,1.34,56.3,1111122 
NERRS,ioos:station:NOAA.NERRS:gndpcwq:1,2014-10-04T17:00:00Z,30.3486,-88.4185,1.31,51.2,1111122 
NERRS,ioos:station:NOAA.NERRS:gndpcwq:1,2014-10-04T18:00:00Z,30.3486,-88.4185,1.29,44.4,1111122 
NERRS,ioos:station:NOAA.NERRS:gndpcwq:1,2014-10-04T19:00:00Z,30.3486,-88.4185,1.24,51.4,1111122 
NERRS,ioos:station:NOAA.NERRS:gndpcwq:1,2014-10-04T20:00:00Z,30.3486,-88.4185,1.19,41.0,1111122 
NERRS,ioos:station:NOAA.NERRS:gndpcwq:1,2014-10-04T21:00:00Z,30.3486,-88.4185,1.15,40.1,1111122 
NERRS,ioos:station:NOAA.NERRS:gndpcwq:1,2014-10-04T22:00:00Z,30.3486,-88.4185,1.13,39.5,1111122 
NERRS,ioos:station:NOAA.NERRS:gndpcwq:1,2014-10-04T23:00:00Z,30.3486,-88.4185,1.12,24.0,1111122 
NERRS,ioos:station:NOAA.NERRS:gndpcwq:1,2014-10-05T00:00:00Z,30.3486,-88.4185,1.14,51.1,1111122 
NERRS,ioos:station:NOAA.NERRS:gndpcwq:1,2014-10-05T01:00:00Z,30.3486,-88.4185,1.17,52.0,1111122 
NERRS,ioos:station:NOAA.NERRS:gndpcwq:1,2014-10-05T02:00:00Z,30.3486,-88.4185,1.21,58.9,1111122 
NERRS,ioos:station:NOAA.NERRS:gndpcwq:1,2014-10-05T03:00:00Z,30.3486,-88.4185,1.3,43.0,1111122 
NERRS,ioos:station:NOAA.NERRS:gndpcwq:1,2014-10-05T04:00:00Z,30.3486,-88.4185,1.35,29.1,1111122 
NERRS,ioos:station:NOAA.NERRS:gndpcwq:1,2014-10-05T05:00:00Z,30.3486,-88.4185,1.38,29.4,1111122 
NERRS,ioos:station:NOAA.NERRS:gndpcwq:1,2014-10-05T06:00:00Z,30.3486,-88.4185,1.34,43.3,1111122 
NERRS,ioos:station:NOAA.NERRS:gndpcwq:1,2014-10-05T07:00:00Z,30.3486,-88.4185,1.34,32.6,1111122 
NERRS,ioos:station:NOAA.NERRS:gndpcwq:1,2014-10-05T07:45:00Z,30.3486,-88.4185,1.36,24.9,1111122 
NERRS,ioos:station:NOAA.NERRS:gndpcwq:1,2014-10-05T09:00:00Z,30.3486,-88.4185,1.37,56.1,1111122 
NERRS,ioos:station:NOAA.NERRS:gndpcwq:1,2014-10-05T10:00:00Z,30.3486,-88.4185,1.41,57.4,1111122 
NERRS,ioos:station:NOAA.NERRS:gndpcwq:1,2014-10-05T11:00:00Z,30.3486,-88.4185,1.45,42.3,1111122 
NERRS,ioos:station:NOAA.NERRS:gndpcwq:1,2014-10-05T12:00:00Z,30.3486,-88.4185,1.45,57.3,1111122 
NERRS,ioos:station:NOAA.NERRS:gndpcwq:1,2014-10-05T13:00:00Z,30.3486,-88.4185,1.45,62.0,1111122 
NERRS,ioos:station:NOAA.NERRS:gndpcwq:1,2014-10-05T14:00:00Z,30.3486,-88.4185,1.48,56.5,1111122 
NERRS,ioos:station:NOAA.NERRS:gndpcwq:1,2014-10-05T15:00:00Z,30.3486,-88.4185,1.52,33.5,1111122 
NERRS,ioos:station:NOAA.NERRS:gndpcwq:1,2014-10-05T16:00:00Z,30.3486,-88.4185,1.52,41.3,1111122 
NERRS,ioos:station:NOAA.NERRS:gndpcwq:1,2014-10-05T17:00:00Z,30.3486,-88.4185,1.48,28.4,1111122 
NERRS,ioos:station:NOAA.NERRS:gndpcwq:1,2014-10-05T18:00:00Z,30.3486,-88.4185,1.36,48.7,1111122 
NERRS,ioos:station:NOAA.NERRS:gndpcwq:1,2014-10-05T19:00:00Z,30.3486,-88.4185,1.3,50.3,1111122 
NERRS,ioos:station:NOAA.NERRS:gndpcwq:1,2014-10-05T20:00:00Z,30.3486,-88.4185,1.25,47.5,1111122 
NERRS,ioos:station:NOAA.NERRS:gndpcwq:1,2014-10-05T21:00:00Z,30.3486,-88.4185,1.21,67.9,1111122 
NERRS,ioos:station:NOAA.NERRS:gndpcwq:1,2014-10-05T22:00:00Z,30.3486,-88.4185,1.24,63.8,1111122 
NERRS,ioos:station:NOAA.NERRS:gndpcwq:1,2014-10-05T23:00:00Z,30.3486,-88.4185,1.24,27.2,1111122 
NERRS,ioos:station:NOAA.NERRS:gndpcwq:1,2014-10-06T00:00:00Z,30.3486,-88.4185,1.23,55.4,1111122 
NERRS,ioos:station:NOAA.NERRS:gndpcwq:1,2014-10-06T01:00:00Z,30.3486,-88.4185,1.26,37.1,1111122 
NERRS,ioos:station:NOAA.NERRS:gndpcwq:1,2014-10-06T02:00:00Z,30.3486,-88.4185,1.28,49.8,1111122 
NERRS,ioos:station:NOAA.NERRS:gndpcwq:1,2014-10-06T03:00:00Z,30.3486,-88.4185,1.36,27.3,1111122 
NERRS,ioos:station:NOAA.NERRS:gndpcwq:1,2014-10-06T04:00:00Z,30.3486,-88.4185,1.4,27.0,1111122 
NERRS,ioos:station:NOAA.NERRS:gndpcwq:1,2014-10-06T05:00:00Z,30.3486,-88.4185,1.39,27.3,1111122 
NERRS,ioos:station:NOAA.NERRS:gndpcwq:1,2014-10-06T06:00:00Z,30.3486,-88.4185,1.37,41.7,1111122 
NERRS,ioos:station:NOAA.NERRS:gndpcwq:1,2014-10-06T07:00:00Z,30.3486,-88.4185,1.32,45.7,1111122 
NERRS,ioos:station:NOAA.NERRS:gndpcwq:1,2014-10-06T08:00:00Z,30.3486,-88.4185,1.31,41.8,1111122 
NERRS,ioos:station:NOAA.NERRS:gndpcwq:1,2014-10-06T09:00:00Z,30.3486,-88.4185,1.36,28.4,1111122 
NERRS,ioos:station:NOAA.NERRS:gndpcwq:1,2014-10-06T10:00:00Z,30.3486,-88.4185,1.39,51.8,1111122 
NERRS,ioos:station:NOAA.NERRS:gndpcwq:1,2014-10-06T11:00:00Z,30.3486,-88.4185,1.44,39.1,1111122 
NERRS,ioos:station:NOAA.NERRS:gndpcwq:1,2014-10-06T12:00:00Z,30.3486,-88.4185,1.49,28.8,1111122 
NERRS,ioos:station:NOAA.NERRS:gndpcwq:1,2014-10-06T13:00:00Z,30.3486,-88.4185,1.5,32.6,1111122 
NERRS,ioos:station:NOAA.NERRS:gndpcwq:1,2014-10-06T14:00:00Z,30.3486,-88.4185,1.52,44.6,1111122 
NERRS,ioos:station:NOAA.NERRS:gndpcwq:1,2014-10-06T15:00:00Z,30.3486,-88.4185,1.56,33.5,1111122 
NERRS,ioos:station:NOAA.NERRS:gndpcwq:1,2014-10-06T16:00:00Z,30.3486,-88.4185,1.58,28.2,1111122 
NERRS,ioos:station:NOAA.NERRS:gndpcwq:1,2014-10-06T17:00:00Z,30.3486,-88.4185,1.57,20.9,1111122 
NERRS,ioos:station:NOAA.NERRS:gndpcwq:1,2014-10-06T18:00:00Z,30.3486,-88.4185,1.54,27.3,1111122 
NERRS,ioos:station:NOAA.NERRS:gndpcwq:1,2014-10-06T19:00:00Z,30.3486,-88.4185,1.44,54.3,1111122 
NERRS,ioos:station:NOAA.NERRS:gndpcwq:1,2014-10-06T20:00:00Z,30.3486,-88.4185,1.41,19.7,1111122 
NERRS,ioos:station:NOAA.NERRS:gndpcwq:1,2014-10-06T21:00:00Z,30.3486,-88.4185,1.38,23.1,1111122 
NERRS,ioos:station:NOAA.NERRS:gndpcwq:1,2014-10-06T22:00:00Z,30.3486,-88.4185,1.38,28.7,1111122 
NERRS,ioos:station:NOAA.NERRS:gndpcwq:1,2014-10-06T23:00:00Z,30.3486,-88.4185,1.4,24.0,1111122 
NERRS,ioos:station:NOAA.NERRS:gndpcwq:1,2014-10-07T00:00:00Z,30.3486,-88.4185,1.43,44.8,1111122 
NERRS,ioos:station:NOAA.NERRS:gndpcwq:1,2014-10-07T01:00:00Z,30.3486,-88.4185,1.45,53.3,1111122 
NERRS,ioos:station:NOAA.NERRS:gndpcwq:1,2014-10-07T02:00:00Z,30.3486,-88.4185,1.5,30.6,1111122 
NERRS,ioos:station:NOAA.NERRS:gndpcwq:1,2014-10-07T03:00:00Z,30.3486,-88.4185,1.48,48.9,1111122 
NERRS,ioos:station:NOAA.NERRS:gndpcwq:1,2014-10-07T04:00:00Z,30.3486,-88.4185,1.5,28.2,1111122 
NERRS,ioos:station:NOAA.NERRS:gndpcwq:1,2014-10-07T05:00:00Z,30.3486,-88.4185,1.52,27.8,1111122 
NERRS,ioos:station:NOAA.NERRS:gndpcwq:1,2014-10-07T06:00:00Z,30.3486,-88.4185,1.53,38.6,1111122 
NERRS,ioos:station:NOAA.NERRS:gndpcwq:1,2014-10-07T07:00:00Z,30.3486,-88.4185,1.44,28.5,1111122 
NERRS,ioos:station:NOAA.NERRS:gndpcwq:1,2014-10-07T08:00:00Z,30.3486,-88.4185,1.39,45.3,1111122 
NERRS,ioos:station:NOAA.NERRS:gndpcwq:1,2014-10-07T09:00:00Z,30.3486,-88.4185,1.33,44.0,1111122 
NERRS,ioos:station:NOAA.NERRS:gndpcwq:1,2014-10-07T10:00:00Z,30.3486,-88.4185,1.35,30.0,1111122 
NERRS,ioos:station:NOAA.NERRS:gndpcwq:1,2014-10-07T11:00:00Z,30.3486,-88.4185,1.34,28.0,1111122 
NERRS,ioos:station:NOAA.NERRS:gndpcwq:1,2014-10-07T12:00:00Z,30.3486,-88.4185,1.38,44.9,1111122 
NERRS,ioos:station:NOAA.NERRS:gndpcwq:1,2014-10-07T13:00:00Z,30.3486,-88.4185,1.43,39.0,1111122 
NERRS,ioos:station:NOAA.NERRS:gndpcwq:1,2014-10-07T14:00:00Z,30.3486,-88.4185,1.45,38.8,1111122 
NERRS,ioos:station:NOAA.NERRS:gndpcwq:1,2014-10-07T15:00:00Z,30.3486,-88.4185,1.47,34.6,1111122 
NERRS,ioos:station:NOAA.NERRS:gndpcwq:1,2014-10-07T16:00:00Z,30.3486,-88.4185,1.5,46.6,1111122 
NERRS,ioos:station:NOAA.NERRS:gndpcwq:1,2014-10-07T17:00:00Z,30.3486,-88.4185,1.53,30.9,1111122 
NERRS,ioos:station:NOAA.NERRS:gndpcwq:1,2014-10-07T18:00:00Z,30.3486,-88.4185,1.55,47.1,1111122 
NERRS,ioos:station:NOAA.NERRS:gndpcwq:1,2014-10-07T19:00:00Z,30.3486,-88.4185,1.54,20.1,1111122 
NERRS,ioos:station:NOAA.NERRS:gndpcwq:1,2014-10-07T20:00:00Z,30.3486,-88.4185,1.48,28.9,1111122 
NERRS,ioos:station:NOAA.NERRS:gndpcwq:1,2014-10-07T21:00:00Z,30.3486,-88.4185,1.44,17.4,1111122 
NERRS,ioos:station:NOAA.NERRS:gndpcwq:1,2014-10-07T22:00:00Z,30.3486,-88.4185,1.46,27.8,1111122 
NERRS,ioos:station:NOAA.NERRS:gndpcwq:1,2014-10-07T23:00:00Z,30.3486,-88.4185,1.48,28.0,1111122 
NERRS,ioos:station:NOAA.NERRS:gndpcwq:1,2014-10-08T00:00:00Z,30.3486,-88.4185,1.51,28.2,1111122 
NERRS,ioos:station:NOAA.NERRS:gndpcwq:1,2014-10-08T01:00:00Z,30.3486,-88.4185,1.51,50.2,1111122 
NERRS,ioos:station:NOAA.NERRS:gndpcwq:1,2014-10-08T02:00:00Z,30.3486,-88.4185,1.54,54.1,1111122 
NERRS,ioos:station:NOAA.NERRS:gndpcwq:1,2014-10-08T03:00:00Z,30.3486,-88.4185,1.55,51.7,1111122 
NERRS,ioos:station:NOAA.NERRS:gndpcwq:1,2014-10-08T04:00:00Z,30.3486,-88.4185,1.54,33.8,1111122 
NERRS,ioos:station:NOAA.NERRS:gndpcwq:1,2014-10-08T05:00:00Z,30.3486,-88.4185,1.54,45.4,1111122 
NERRS,ioos:station:NOAA.NERRS:gndpcwq:1,2014-10-08T07:00:00Z,30.3486,-88.4185,1.48,50.6,1111122 
NERRS,ioos:station:NOAA.NERRS:gndpcwq:1,2014-10-08T08:00:00Z,30.3486,-88.4185,1.44,28.7,1111122 
NERRS,ioos:station:NOAA.NERRS:gndpcwq:1,2014-10-08T09:00:00Z,30.3486,-88.4185,1.35,48.0,1111122 
NERRS,ioos:station:NOAA.NERRS:gndpcwq:1,2014-10-08T10:00:00Z,30.3486,-88.4185,1.32,28.3,1111122 
NERRS,ioos:station:NOAA.NERRS:gndpcwq:1,2014-10-08T11:00:00Z,30.3486,-88.4185,1.32,28.1,1111122 
NERRS,ioos:station:NOAA.NERRS:gndpcwq:1,2014-10-08T12:00:00Z,30.3486,-88.4185,1.33,51.1,1111122 
NERRS,ioos:station:NOAA.NERRS:gndpcwq:1,2014-10-08T13:00:00Z,30.3486,-88.4185,1.37,64.0,1111122 
NERRS,ioos:station:NOAA.NERRS:gndpcwq:1,2014-10-08T14:00:00Z,30.3486,-88.4185,1.41,67.4,1111122 
NERRS,ioos:station:NOAA.NERRS:gndpcwq:1,2014-10-08T15:00:00Z,30.3486,-88.4185,1.46,42.6,1111122 
NERRS,ioos:station:NOAA.NERRS:gndpcwq:1,2014-10-08T16:00:00Z,30.3486,-88.4185,1.49,28.4,1111122 
NERRS,ioos:station:NOAA.NERRS:gndpcwq:1,2014-10-08T17:00:00Z,30.3486,-88.4185,1.52,28.0,1111122 
NERRS,ioos:station:NOAA.NERRS:gndpcwq:1,2014-10-08T18:00:00Z,30.3486,-88.4185,1.51,60.9,1111122 
NERRS,ioos:station:NOAA.NERRS:gndpcwq:1,2014-10-08T19:00:00Z,30.3486,-88.4185,1.54,41.6,1111122 
NERRS,ioos:station:NOAA.NERRS:gndpcwq:1,2014-10-08T20:00:00Z,30.3486,-88.4185,1.53,48.7,1111122 
NERRS,ioos:station:NOAA.NERRS:gndpcwq:1,2014-10-08T21:00:00Z,30.3486,-88.4185,1.53,27.3,1111122 
NERRS,ioos:station:NOAA.NERRS:gndpcwq:1,2014-10-08T22:00:00Z,30.3486,-88.4185,1.5,45.9,1111122 
NERRS,ioos:station:NOAA.NERRS:gndpcwq:1,2014-10-08T23:00:00Z,30.3486,-88.4185,1.51,37.5,1111122 
NERRS,ioos:station:NOAA.NERRS:gndpcwq:1,2014-10-09T00:00:00Z,30.3486,-88.4185,1.56,30.1,1111122 
NERRS,ioos:station:NOAA.NERRS:gndpcwq:1,2014-10-09T01:00:00Z,30.3486,-88.4185,1.62,24.8,1111122 
NERRS,ioos:station:NOAA.NERRS:gndpcwq:1,2014-10-09T02:00:00Z,30.3486,-88.4185,1.66,19.2,1111122 
NERRS,ioos:station:NOAA.NERRS:gndpcwq:1,2014-10-09T03:00:00Z,30.3486,-88.4185,1.67,17.2,1111122 
NERRS,ioos:station:NOAA.NERRS:gndpcwq:1,2014-10-09T04:00:00Z,30.3486,-88.4185,1.62,27.8,1111122 
NERRS,ioos:station:NOAA.NERRS:gndpcwq:1,2014-10-09T05:00:00Z,30.3486,-88.4185,1.59,27.8,1111122 
NERRS,ioos:station:NOAA.NERRS:gndpcwq:1,2014-10-09T06:00:00Z,30.3486,-88.4185,1.55,27.7,1111122 
NERRS,ioos:station:NOAA.NERRS:gndpcwq:1,2014-10-09T07:00:00Z,30.3486,-88.4185,1.53,27.5,1111122 
NERRS,ioos:station:NOAA.NERRS:gndpcwq:1,2014-10-09T08:00:00Z,30.3486,-88.4185,1.45,27.5,1111122 
NERRS,ioos:station:NOAA.NERRS:gndpcwq:1,2014-10-09T09:00:00Z,30.3486,-88.4185,1.37,38.5,1111122 
NERRS,ioos:station:NOAA.NERRS:gndpcwq:1,2014-10-09T10:00:00Z,30.3486,-88.4185,1.27,58.5,1111122 
NERRS,ioos:station:NOAA.NERRS:gndpcwq:1,2014-10-09T11:00:00Z,30.3486,-88.4185,1.22,60.4,1111122 
NERRS,ioos:station:NOAA.NERRS:gndpcwq:1,2014-10-09T12:00:00Z,30.3486,-88.4185,1.23,50.9,1111122 
NERRS,ioos:station:NOAA.NERRS:gndpcwq:1,2014-10-09T13:00:00Z,30.3486,-88.4185,1.26,59.5,1111122 
NERRS,ioos:station:NOAA.NERRS:gndpcwq:1,2014-10-09T14:00:00Z,30.3486,-88.4185,1.29,61.6,1111122 
NERRS,ioos:station:NOAA.NERRS:gndpcwq:1,2014-10-09T15:00:00Z,30.3486,-88.4185,1.35,45.2,1111122 
NERRS,ioos:station:NOAA.NERRS:gndpcwq:1,2014-10-09T16:00:00Z,30.3486,-88.4185,1.42,31.5,1111122 
NERRS,ioos:station:NOAA.NERRS:gndpcwq:1,2014-10-09T17:00:00Z,30.3486,-88.4185,1.43,31.7,1111122 
NERRS,ioos:station:NOAA.NERRS:gndpcwq:1,2014-10-09T18:00:00Z,30.3486,-88.4185,1.46,31.6,1111122 
NERRS,ioos:station:NOAA.NERRS:gndpcwq:1,2014-10-09T19:00:00Z,30.3486,-88.4185,1.49,31.6,1111122 
NERRS,ioos:station:NOAA.NERRS:gndpcwq:1,2014-10-09T20:00:00Z,30.3486,-88.4185,1.52,31.5,1111122 
NERRS,ioos:station:NOAA.NERRS:gndpcwq:1,2014-10-09T21:00:00Z,30.3486,-88.4185,1.52,31.5,1111122 
NERRS,ioos:station:NOAA.NERRS:gndpcwq:1,2014-10-09T22:00:00Z,30.3486,-88.4185,1.53,31.5,1111122 
NERRS,ioos:station:NOAA.NERRS:gndpcwq:1,2014-10-09T23:00:00Z,30.3486,-88.4185,1.55,31.5,1111122 
NERRS,ioos:station:NOAA.NERRS:gndpcwq:1,2014-10-10T00:00:00Z,30.3486,-88.4185,1.59,31.6,1111122 
NERRS,ioos:station:NOAA.NERRS:gndpcwq:1,2014-10-10T02:00:00Z,30.3486,-88.4185,1.71,31.5,1111122 
NERRS,ioos:station:NOAA.NERRS:gndpcwq:1,2014-10-10T03:00:00Z,30.3486,-88.4185,1.74,31.4,1111122 
NERRS,ioos:station:NOAA.NERRS:gndpcwq:1,2014-10-10T04:00:00Z,30.3486,-88.4185,1.73,31.3,1111122 
NERRS,ioos:station:NOAA.NERRS:gndpcwq:1,2014-10-10T05:00:00Z,30.3486,-88.4185,1.69,31.3,1111122 
NERRS,ioos:station:NOAA.NERRS:gndpcwq:1,2014-10-10T06:00:00Z,30.3486,-88.4185,1.66,31.3,1111122 
NERRS,ioos:station:NOAA.NERRS:gndpcwq:1,2014-10-10T07:00:00Z,30.3486,-88.4185,1.62,31.3,1111122 
NERRS,ioos:station:NOAA.NERRS:gndpcwq:1,2014-10-10T08:00:00Z,30.3486,-88.4185,1.57,31.2,1111122 
NERRS,ioos:station:NOAA.NERRS:gndpcwq:1,2014-10-10T09:00:00Z,30.3486,-88.4185,1.48,30.7,1111122 
NERRS,ioos:station:NOAA.NERRS:gndpcwq:1,2014-10-10T10:00:00Z,30.3486,-88.4185,1.39,30.7,1111122 
NERRS,ioos:station:NOAA.NERRS:gndpcwq:1,2014-10-10T11:00:00Z,30.3486,-88.4185,1.31,30.8,1111122 
NERRS,ioos:station:NOAA.NERRS:gndpcwq:1,2014-10-10T12:00:00Z,30.3486,-88.4185,1.26,31.3,1111122 
NERRS,ioos:station:NOAA.NERRS:gndpcwq:1,2014-10-10T13:00:00Z,30.3486,-88.4185,1.25,31.4,1111122 
NERRS,ioos:station:NOAA.NERRS:gndpcwq:1,2014-10-10T14:00:00Z,30.3486,-88.4185,1.28,31.1,1111122 
NERRS,ioos:station:NOAA.NERRS:gndpcwq:1,2014-10-10T15:00:00Z,30.3486,-88.4185,1.3,31.3,1111122 
NERRS,ioos:station:NOAA.NERRS:gndpcwq:1,2014-10-10T16:00:00Z,30.3486,-88.4185,1.33,31.0,1111122 
NERRS,ioos:station:NOAA.NERRS:gndpcwq:1,2014-10-10T17:00:00Z,30.3486,-88.4185,1.33,30.9,1111122 
NERRS,ioos:station:NOAA.NERRS:gndpcwq:1,2014-10-10T18:00:00Z,30.3486,-88.4185,1.36,30.9,1111122 
NERRS,ioos:station:NOAA.NERRS:gndpcwq:1,2014-10-10T19:00:00Z,30.3486,-88.4185,1.41,31.0,1111122 
NERRS,ioos:station:NOAA.NERRS:gndpcwq:1,2014-10-10T20:00:00Z,30.3486,-88.4185,1.46,31.2,1111122 
NERRS,ioos:station:NOAA.NERRS:gndpcwq:1,2014-10-10T21:00:00Z,30.3486,-88.4185,1.48,31.3,1111122 
NERRS,ioos:station:NOAA.NERRS:gndpcwq:1,2014-10-10T22:00:00Z,30.3486,-88.4185,1.51,31.3,1111122 
NERRS,ioos:station:NOAA.NERRS:gndpcwq:1,2014-10-10T23:00:00Z,30.3486,-88.4185,1.52,31.4,1111122 
NERRS,ioos:station:NOAA.NERRS:gndpcwq:1,2014-10-11T00:00:00Z,30.3486,-88.4185,1.57,31.5,1111122 
NERRS,ioos:station:NOAA.NERRS:gndpcwq:1,2014-10-11T01:00:00Z,30.3486,-88.4185,1.62,31.6,1111122 
NERRS,ioos:station:NOAA.NERRS:gndpcwq:1,2014-10-11T02:00:00Z,30.3486,-88.4185,1.68,31.6,1111122 
NERRS,ioos:station:NOAA.NERRS:gndpcwq:1,2014-10-11T03:00:00Z,30.3486,-88.4185,1.73,31.7,1111122 
NERRS,ioos:station:NOAA.NERRS:gndpcwq:1,2014-10-11T04:00:00Z,30.3486,-88.4185,1.76,31.8,1111122 
NERRS,ioos:station:NOAA.NERRS:gndpcwq:1,2014-10-11T05:00:00Z,30.3486,-88.4185,1.76,31.8,1111122 
NERRS,ioos:station:NOAA.NERRS:gndpcwq:1,2014-10-11T06:00:00Z,30.3486,-88.4185,1.72,31.8,1111122 
NERRS,ioos:station:NOAA.NERRS:gndpcwq:1,2014-10-11T07:00:00Z,30.3486,-88.4185,1.68,31.7,1111122 
NERRS,ioos:station:NOAA.NERRS:gndpcwq:1,2014-10-11T08:00:00Z,30.3486,-88.4185,1.64,31.7,1111122 
NERRS,ioos:station:NOAA.NERRS:gndpcwq:1,2014-10-11T09:00:00Z,30.3486,-88.4185,1.57,31.7,1111122 